Location: Lahas
(43.5538°N, 0.8906°E)
Time: 20:42:09
(UTC+00:00)

Cosmos 1076 Rocket - Pass Details

Date: 15 May 2026
Orbit: 580 x 604 km, 82.5° (Epoch: 7 June)

Event Time Altitude Azimuth Distance (km) Brightness Sun altitude
Rises 22:30:34 0° 343° (NNW) 2,831 8.3 -24.6°
Reaches altitude 10° 22:32:53 10° 336° (NNW) 1,921 7.1 -24.8°
Maximum altitude 22:36:48 38° 268° (W) 902 4.5 -25.0°
Enters shadow 22:36:55 38° 265° (W) 903 4.4 -25.0°
